Regional Weather Roundup
Issued by NWS

Home | Current Version | Previous Version | Graphics & Text | Print | Product List | Glossary On
Versions: 1 2 3 4 5 6 7 8 9 10 11 12 13 14 15 16 17 18 19 20 21 22 23 24 25 26 27 28 29 30 31 32 33 34 35 36 37 38 39 40 41 42 43 44 45 46 47 48 49 50
221
ASUS45 KCYS 172110
RWRWY

WYOMING REGIONAL WEATHER ROUNDUP
NATIONAL WEATHER SERVICE CHEYENNE WY
200 PM MST TUE JAN 17 2017

NOTE:  "FAIR" INDICATES FEW OR NO CLOUDS BELOW 12,000 FEET
WITH NO SIGNIFICANT WEATHER AND/OR OBSTRUCTIONS TO VISIBILITY.

WYZ001-172200-
YELLOWSTONE NATIONAL PARK

CITY           SKY/WX    TMP DP  RH WIND       PRES   REMARKS
LK YELLOWSTONE   N/A     13   5  70 CALM      30.14F
W YELLOWSTONE  NOT AVBL

$$
WYZ002>013-054>058-071-098>099-172200-
NORTHERN WYOMING

CITY           SKY/WX    TMP DP  RH WIND       PRES   REMARKS
JACKSON        SUNNY      7   1  78 CALM      30.19F
CODY           FAIR      30  15  53 CALM      29.96F
GREYBULL       FAIR       8  -2  63 N5        30.03F WCI   0
WORLAND        FAIR      18   7  62 CALM      30.00F
SHERIDAN       FAIR      34  17  50 VRB6      29.88R WCI  29
BUFFALO        FAIR      41  19  41 S3        29.89S
GILLETTE       FAIR      41  22  46 SW17      29.88F
HULETT         FAIR      43  14  31 SW14      29.88F
NEWCASTLE      FAIR      32  14  47 NW7       29.94F WCI  26

$$
WYZ014>020-022>026-101>103-172200-
CENTRAL WYOMING

CITY           SKY/WX    TMP DP  RH WIND       PRES   REMARKS
BIG PINEY      FAIR       2  -4  76 CALM      30.14F
PINEDALE       FAIR       3   0  85 SE6       30.14S WCI  -8
DUBOIS         NOT AVBL
LANDER         FAIR      17   7  64 N3        30.05F
RIVERTON       FAIR      14   8  77 N3        30.07F
CASPER         FAIR      36  10  34 SW30G45   29.99F WCI  23
DOUGLAS        FAIR      50   8  18 NW21      29.94F

$$
WYZ021-027>030-104>119-172200-
SOUTHERN WYOMING

CITY           SKY/WX    TMP DP  RH WIND       PRES   REMARKS
EVANSTON       FAIR      16   7  67 SE5       30.12F WCI   9
ROCK SPRINGS   FAIR       6   0  76 CALM      30.14F
RAWLINS        FAIR      21  10  62 W15       30.12F WCI   8
LARAMIE        FAIR      20  14  77 N6        30.05S WCI  12
CHEYENNE       FAIR      51   0  12 NW14      29.97S
TORRINGTON     FAIR      49  12  22 W7        29.95F

$$




USA.gov is the U.S. government's official web portal to all federal, state and local government web resources and services.